{"data":{"norad_id":40982,"epoch":"2026-09-19T18:31:38.867232Z","epoch_age_seconds":84781,"freshness":"FRESH","line1":"1 40982U 15059A   26262.77197763 -.00000269  00000+0  00000+0 0  9994","line2":"2 40982   0.0404  47.4555 0002548 126.5555 244.5988  1.00274052 40051","mean_motion":1.00274052,"eccentricity":0.0002548,"inclination_deg":0.0404,"raan_deg":47.4555,"arg_perigee_deg":126.5555,"mean_anomaly_deg":244.5988,"bstar":0,"rev_number":4005,"period_min":1436.06443669,"perigee_km":35775.216038994,"apogee_km":35796.702862545,"semimajor_km":42164.096450769,"source":"CELESTRAK","updated_at":"2026-09-20T09:00:35.220382Z"}}